Satellite: SO-41
Catalog number: 26545
Epoch time:      05187.63778654
Element set:    0117
Inclination:      064.5579 deg
RA of node:       238.0521 deg
Eccentricity:    0.0050220
Arg of perigee:   302.9707 deg
Mean anomaly:     056.6594 deg
Mean motion:   14.80117717 rev/day
Decay rate:        8.6e-07 rev/day^2
Epoch rev:           25781
Checksum:              317

Satellite: SO-42
Catalog number: 26549
Epoch time:      05187.64243740
Element set:    0183
Inclination:      064.5570 deg
RA of node:       246.7650 deg
Eccentricity:    0.0051833
Arg of perigee:   306.7898 deg
Mean anomaly:     052.8471 deg
Mean motion:   14.78995635 rev/day
Decay rate:        3.6e-07 rev/day^2
Epoch rev:           25763
Checksum:              340

Satellite: NO-44
Catalog number: 26931
Epoch time:      05187.70084046
Element set:    0072
Inclination:      067.0505 deg
RA of node:       177.5347 deg
Eccentricity:    0.0005833
Arg of perigee:   261.5482 deg
Mean anomaly:     098.4962 deg
Mean motion:   14.29390245 rev/day
Decay rate:        6.8e-07 rev/day^2
Epoch rev:           19655
Checksum:              320

Satellite: KO-23
Catalog number: 22077
Epoch time:      05187.73260656
Element set:     516
Inclination:      066.0879 deg
RA of node:       105.5215 deg
Eccentricity:    0.0015412
Arg of perigee:   252.1220 deg
Mean anomaly:     107.8118 deg
Mean motion:   12.86431856 rev/day
Decay rate:       -3.7e-07 rev/day^2
Epoch rev:           60610
Checksum:              278

Satellite: UO-22
Catalog number: 21575
Epoch time:      05187.80480203
Element set:    0448
Inclination:      098.2436 deg
RA of node:       152.3998 deg
Eccentricity:    0.0007988
Arg of perigee:   038.3742 deg
Mean anomaly:     321.8012 deg
Mean motion:   14.39494382 rev/day
Decay rate:        7.1e-07 rev/day^2
Epoch rev:           73332
Checksum:              315

Satellite: TO-31
Catalog number: 25396
Epoch time:      05187.80757883
Element set:    0291
Inclination:      098.5281 deg
RA of node:       254.4679 deg
Eccentricity:    0.0003584
Arg of perigee:   116.7400 deg
Mean anomaly:     243.4162 deg
Mean motion:   14.23674572 rev/day
Decay rate:       -4.2e-07 rev/day^2
Epoch rev:           36320
Checksum:              312

Satellite: SO-50
Catalog number: 27607
Epoch time:      05187.82042614
Element set:    0762
Inclination:      064.5597 deg
RA of node:       081.3829 deg
Eccentricity:    0.0080920
Arg of perigee:   234.9526 deg
Mean anomaly:     124.3979 deg
Mean motion:   14.70985132 rev/day
Decay rate:        9.0e-07 rev/day^2
Epoch rev:           13662
Checksum:              320

Satellite: GO-32
Catalog number: 25397
Epoch time:      05187.82985226
Element set:    0779
Inclination:      098.5181 deg
RA of node:       251.9674 deg
Eccentricity:    0.0002241
Arg of perigee:   127.7686 deg
Mean anomaly:     232.3682 deg
Mean motion:   14.23081871 rev/day
Decay rate:       -8.5e-07 rev/day^2
Epoch rev:           36312
Checksum:              330

Satellite: IO-26
Catalog number: 22826
Epoch time:      05188.03785440
Element set:     841
Inclination:      098.2468 deg
RA of node:       183.7694 deg
Eccentricity:    0.0008344
Arg of perigee:   196.1975 deg
Mean anomaly:     163.8933 deg
Mean motion:   14.29376984 rev/day
Decay rate:        7.5e-07 rev/day^2
Epoch rev:           61412
Checksum:              349

Satellite: UO-14
Catalog number: 20437
Epoch time:      05188.04542568
Element set:     820
Inclination:      098.1908 deg
RA of node:       196.6558 deg
Eccentricity:    0.0011342
Arg of perigee:   130.6299 deg
Mean anomaly:     229.5879 deg
Mean motion:   14.31417978 rev/day
Decay rate:        3.3e-07 rev/day^2
Epoch rev:           80687
Checksum:              336

Satellite: MO-46
Catalog number: 26548
Epoch time:      05188.08608305
Element set:     226
Inclination:      064.5569 deg
RA of node:       218.9728 deg
Eccentricity:    0.0046552
Arg of perigee:   295.1838 deg
Mean anomaly:     064.4450 deg
Mean motion:   14.82752632 rev/day
Decay rate:       3.09e-06 rev/day^2
Epoch rev:           25823
Checksum:              332

Satellite: AO-16
Catalog number: 20439
Epoch time:      05188.11621674
Element set:     504
Inclination:      098.2033 deg
RA of node:       212.1763 deg
Eccentricity:    0.0011676
Arg of perigee:   138.6879 deg
Mean anomaly:     221.5187 deg
Mean motion:   14.31682093 rev/day
Decay rate:        3.0e-07 rev/day^2
Epoch rev:           80694
Checksum:              298

Satellite: LO-19
Catalog number: 20442
Epoch time:      05188.13542954
Element set:     433
Inclination:      098.2221 deg
RA of node:       221.1300 deg
Eccentricity:    0.0012422
Arg of perigee:   138.2905 deg
Mean anomaly:     221.9242 deg
Mean motion:   14.31927581 rev/day
Decay rate:        1.3e-07 rev/day^2
Epoch rev:           80707
Checksum:              259

Satellite: AO-27
Catalog number: 22825
Epoch time:      05188.14958738
Element set:     167
Inclination:      098.2497 deg
RA of node:       182.5940 deg
Eccentricity:    0.0008480
Arg of perigee:   196.3731 deg
Mean anomaly:     163.7176 deg
Mean motion:   14.29136294 rev/day
Decay rate:       2.12e-06 rev/day^2
Epoch rev:           61407
Checksum:              332

